• In Österreich
  • Länderverzeichnis
  • Für 7 Tage
  • Wassertemperatur
  • Satellitenkarten
  • Wetterkarte
  • News
  • Widgets
  • user-avatar
    Anmelden

    Stündliche Wetter Poluyanovo

    Heute, 20 September, Donnerstag

    Zeit Temperatur Niederschläge Wind Luftdruck Luftfeuchtigkeit
    00:00 +16°C° 0 mm 2 m/S 747 mmHg 95%
    01:00 +16°C° 0 mm 2 m/S 747 mmHg 96%
    02:00 +15°C° 0 mm 2 m/S 747 mmHg 97%
    03:00 +15°C° 0 mm 2 m/S 747 mmHg 97%
    04:00 +14°C° 0 mm 2 m/S 747 mmHg 98%
    05:00 +14°C° 0 mm 2 m/S 748 mmHg 98%
    06:00 +14°C° 0 mm 2 m/S 748 mmHg 95%
    07:00 +15°C° 0 mm 2 m/S 748 mmHg 91%
    08:00 +16°C° 0 mm 2 m/S 748 mmHg 87%
    09:00 +17°C° 0 mm 2 m/S 748 mmHg 79%
    10:00 +19°C° 0 mm 3 m/S 748 mmHg 71%
    11:00 +21°C° 0 mm 3 m/S 749 mmHg 63%
    12:00 +21°C° 0 mm 3 m/S 749 mmHg 60%
    13:00 +22°C° 0 mm 3 m/S 749 mmHg 57%
    14:00 +25°C° 0 mm 3 m/S 748 mmHg 55%
    15:00 +24°C° 0 mm 2 m/S 748 mmHg 60%
    16:00 +23°C° 0 mm 2 m/S 748 mmHg 66%
    17:00 +21°C° 0 mm 2 m/S 748 mmHg 71%
    18:00 +19°C° 0 mm 2 m/S 748 mmHg 76%
    19:00 +18°C° 0 mm 2 m/S 749 mmHg 81%
    20:00 +16°C° 0 mm 2 m/S 749 mmHg 85%
    21:00 +16°C° 0 mm 2 m/S 749 mmHg 86%
    22:00 +16°C° 0 mm 2 m/S 749 mmHg 87%
    23:00 +15°C° 0 mm 2 m/S 749 mmHg 88%

    Morgen, 21 September, Freitag

    Zeit Temperatur Niederschläge Wind Luftdruck Luftfeuchtigkeit
    00:00 +15°C° 0 mm 2 m/S 749 mmHg 89%
    01:00 +15°C° 0 mm 2 m/S 749 mmHg 90%
    02:00 +15°C° 0 mm 2 m/S 749 mmHg 91%
    03:00 +15°C° 0 mm 2 m/S 749 mmHg 92%
    04:00 +15°C° 0 mm 2 m/S 749 mmHg 93%
    05:00 +15°C° 0 mm 2 m/S 749 mmHg 94%
    06:00 +16°C° 0 mm 2 m/S 749 mmHg 89%
    07:00 +17°C° 0 mm 3 m/S 749 mmHg 85%
    08:00 +18°C° 0 mm 3 m/S 749 mmHg 80%
    09:00 +20°C° 0 mm 3 m/S 749 mmHg 75%
    10:00 +22°C° 0 mm 3 m/S 749 mmHg 69%
    11:00 +23°C° 0 mm 4 m/S 749 mmHg 63%
    12:00 +25°C° 0 mm 4 m/S 749 mmHg 61%
    13:00 +26°C° 0 mm 4 m/S 749 mmHg 58%
    14:00 +27°C° 0 mm 4 m/S 749 mmHg 55%
    15:00 +26°C° 0 mm 3 m/S 748 mmHg 61%
    16:00 +25°C° 0 mm 3 m/S 748 mmHg 67%
    17:00 +24°C° 0 mm 2 m/S 748 mmHg 73%
    18:00 +22°C° 0 mm 3 m/S 748 mmHg 76%
    19:00 +21°C° 0 mm 3 m/S 748 mmHg 79%
    20:00 +20°C° 0 mm 3 m/S 748 mmHg 83%
    21:00 +19°C° 0 mm 3 m/S 747 mmHg 82%
    22:00 +19°C° 0 mm 3 m/S 747 mmHg 82%
    23:00 +18°C° 0 mm 3 m/S 747 mmHg 81%

    übermorgen, 22 September, Samstag

    Zeit Temperatur Niederschläge Wind Luftdruck Luftfeuchtigkeit
    00:00 +18°C° 0 mm 4 m/S 746 mmHg 80%
    01:00 +18°C° 0 mm 4 m/S 746 mmHg 78%
    02:00 +18°C° 0 mm 4 m/S 746 mmHg 76%
    03:00 +18°C° 0 mm 4 m/S 745 mmHg 76%
    04:00 +17°C° 0 mm 4 m/S 744 mmHg 75%
    05:00 +16°C° 0 mm 5 m/S 744 mmHg 75%
    06:00 +17°C° 0 mm 5 m/S 743 mmHg 72%
    07:00 +17°C° 0 mm 5 m/S 743 mmHg 69%
    08:00 +19°C° 0 mm 6 m/S 743 mmHg 66%
    09:00 +20°C° 0 mm 6 m/S 743 mmHg 64%
    10:00 +21°C° 0 mm 6 m/S 743 mmHg 61%
    11:00 +22°C° 0 mm 6 m/S 743 mmHg 59%
    12:00 +19°C° 0.4 mm 5 m/S 743 mmHg 68%
    13:00 +17°C° 0.4 mm 4 m/S 744 mmHg 76%
    14:00 +13°C° 0.4 mm 3 m/S 744 mmHg 84%
    15:00 +12°C° 0.3 mm 3 m/S 744 mmHg 86%
    16:00 +12°C° 0.3 mm 3 m/S 744 mmHg 89%
    17:00 +12°C° 0.3 mm 2 m/S 745 mmHg 91%
    18:00 +12°C° 0.4 mm 2 m/S 745 mmHg 92%
    19:00 +11°C° 0.4 mm 3 m/S 745 mmHg 92%
    20:00 +10°C° 0.4 mm 3 m/S 745 mmHg 93%
    21:00 +10°C° 0.8 mm 3 m/S 745 mmHg 93%
    22:00 +10°C° 0.8 mm 3 m/S 745 mmHg 93%
    23:00 +10°C° 0.8 mm 3 m/S 745 mmHg 93%

    23 September, Sonntag

    Zeit Temperatur Niederschläge Wind Luftdruck Luftfeuchtigkeit
    00:00 +10°C° 0.4 mm 3 m/S 744 mmHg 94%
    01:00 +10°C° 0.4 mm 2 m/S 744 mmHg 94%
    02:00 +9°C° 0.4 mm 2 m/S 744 mmHg 95%
    03:00 +9°C° 0.1 mm 2 m/S 744 mmHg 95%
    04:00 +9°C° 0.1 mm 2 m/S 743 mmHg 95%
    05:00 +9°C° 0.1 mm 2 m/S 743 mmHg 96%
    06:00 +9°C° 0 mm 2 m/S 743 mmHg 95%
    07:00 +9°C° 0 mm 2 m/S 742 mmHg 93%
    08:00 +9°C° 0 mm 3 m/S 742 mmHg 92%
    09:00 +10°C° 0.1 mm 3 m/S 742 mmHg 86%
    10:00 +12°C° 0.1 mm 3 m/S 742 mmHg 79%
    11:00 +13°C° 0.1 mm 4 m/S 741 mmHg 73%
    12:00 +13°C° 0.3 mm 4 m/S 741 mmHg 71%
    13:00 +13°C° 0.3 mm 4 m/S 741 mmHg 70%
    14:00 +13°C° 0.3 mm 4 m/S 741 mmHg 68%
    15:00 +12°C° 0.3 mm 4 m/S 741 mmHg 72%
    16:00 +11°C° 0.3 mm 4 m/S 741 mmHg 77%
    17:00 +11°C° 0.3 mm 3 m/S 741 mmHg 81%
    18:00 +10°C° 0 mm 3 m/S 741 mmHg 83%
    19:00 +9°C° 0 mm 3 m/S 741 mmHg 86%
    20:00 +8°C° 0 mm 3 m/S 741 mmHg 88%
    21:00 +8°C° 0 mm 3 m/S 741 mmHg 88%
    22:00 +8°C° 0 mm 3 m/S 741 mmHg 89%
    23:00 +8°C° 0 mm 3 m/S 741 mmHg 89%

    24 September, Montag

    Zeit Temperatur Niederschläge Wind Luftdruck Luftfeuchtigkeit
    00:00 +7°C° 0 mm 3 m/S 741 mmHg 90%
    01:00 +7°C° 0 mm 3 m/S 741 mmHg 90%
    02:00 +5°C° 0 mm 3 m/S 741 mmHg 91%
    03:00 +5°C° 0 mm 3 m/S 741 mmHg 92%
    04:00 +5°C° 0 mm 3 m/S 741 mmHg 93%
    05:00 +4°C° 0 mm 3 m/S 741 mmHg 95%
    06:00 +5°C° 0 mm 3 m/S 741 mmHg 93%
    07:00 +7°C° 0 mm 3 m/S 741 mmHg 91%
    08:00 +7°C° 0 mm 2 m/S 741 mmHg 89%
    09:00 +8°C° 0 mm 2 m/S 741 mmHg 83%
    10:00 +10°C° 0 mm 2 m/S 740 mmHg 76%
    11:00 +12°C° 0 mm 1 m/S 740 mmHg 70%
    12:00 +12°C° 0.1 mm 2 m/S 740 mmHg 70%
    13:00 +12°C° 0.1 mm 2 m/S 739 mmHg 70%
    14:00 +12°C° 0.1 mm 2 m/S 739 mmHg 70%
    15:00 +12°C° 0.5 mm 2 m/S 739 mmHg 75%
    16:00 +10°C° 0.5 mm 2 m/S 739 mmHg 81%
    17:00 +9°C° 0.5 mm 2 m/S 738 mmHg 86%
    18:00 +9°C° 0.8 mm 3 m/S 738 mmHg 88%
    19:00 +8°C° 0.8 mm 3 m/S 738 mmHg 90%
    20:00 +7°C° 0.8 mm 4 m/S 737 mmHg 92%
    21:00 +7°C° 0.8 mm 4 m/S 737 mmHg 92%
    22:00 +6°C° 0.8 mm 5 m/S 737 mmHg 91%
    23:00 +6°C° 0.8 mm 5 m/S 737 mmHg 91%

    25 September, Dienstag

    Zeit Temperatur Niederschläge Wind Luftdruck Luftfeuchtigkeit
    00:00 +5°C° 0.7 mm 6 m/S 736 mmHg 91%
    01:00 +5°C° 0.7 mm 6 m/S 736 mmHg 90%
    02:00 +5°C° 0.7 mm 6 m/S 736 mmHg 90%
    03:00 +5°C° 0.4 mm 7 m/S 737 mmHg 89%
    04:00 +5°C° 0.4 mm 7 m/S 737 mmHg 88%
    05:00 +5°C° 0.4 mm 7 m/S 738 mmHg 88%
    06:00 +5°C° 0.2 mm 7 m/S 738 mmHg 86%
    07:00 +5°C° 0.2 mm 7 m/S 738 mmHg 85%
    08:00 +5°C° 0.2 mm 7 m/S 739 mmHg 84%
    09:00 +5°C° 0.1 mm 7 m/S 740 mmHg 81%
    10:00 +5°C° 0.1 mm 7 m/S 740 mmHg 78%
    11:00 +5°C° 0.1 mm 7 m/S 741 mmHg 75%
    12:00 +6°C° 0.1 mm 7 m/S 741 mmHg 70%
    13:00 +6°C° 0.1 mm 7 m/S 742 mmHg 65%
    14:00 +6°C° 0.1 mm 7 m/S 742 mmHg 60%
    15:00 +6°C° 0 mm 7 m/S 743 mmHg 58%
    16:00 +7°C° 0 mm 6 m/S 743 mmHg 57%
    17:00 +5°C° 0 mm 6 m/S 744 mmHg 55%
    18:00 +6°C° 0 mm 5 m/S 744 mmHg 57%
    19:00 +5°C° 0 mm 5 m/S 744 mmHg 58%
    20:00 +3°C° 0 mm 5 m/S 745 mmHg 60%
    21:00 +4°C° 0 mm 4 m/S 745 mmHg 62%
    22:00 +3°C° 0 mm 4 m/S 745 mmHg 64%
    23:00 +3°C° 0 mm 4 m/S 746 mmHg 66%
    Mehr zeigen